Regional Weather Roundup
Issued by NWS Charleston, SC

Current Version | Previous Version | Graphics & Text | Print | Product List | Glossary On
Versions: 1 2 3 4 5 6 7 8 9 10 11 12 13 14 15 16 17 18 19 20 21 22 23 24 25 26 27 28 29 30 31 32 33 34 35 36 37 38 39 40 41 42 43 44 45 46 47 48 49 50
000
ASUS42 KCHS 281912
RWRCHS

REGIONAL WEATHER ROUNDUP
NATIONAL WEATHER SERVICE CHARLESTON SC
300 PM EDT SUN MAY 28 2017

NOTE: "FAIR" INDICATES FEW OR NO CLOUDS BELOW 12,000 FEET WITH NO
SIGNIFICANT WEATHER AND/OR OBSTRUCTIONS TO VISIBILITY.

NOT ALL STATIONS ARE QUALITY CONTROLLED. USE DATA WITH CAUTION...
ESPECIALLY DEWPOINT OBSERVATIONS.

SCZ027-030-031-034>040-042>050-282000-
...SOUTHEAST SOUTH CAROLINA...

CITY           SKY/WX    TMP DP  RH WIND       PRES   REMARKS
N CHARLESTON   PTSUNNY   89  70  53 W17       29.89F HX  94
WATERFRONT PRK   N/A     87  73  62 SW8G15    29.88F HX  94
JOHNS ISLAND   FAIR      88  73  62 SW13G20   29.91S HX  96
PINOPOLIS        N/A     84  73  70 SW10      29.82F HX  91
MONCKS CORNER  FAIR      86  70  58 SW6       29.89F HX  90
SUMMERVILLE    FAIR      90  70  51 SW13G22   29.91S HX  95
BEAUFORT MCAS  PTSUNNY   88  73  61 W13       29.92F HX  95
BEAUFORT ARPT  NOT AVBL
HILTON HEAD IS MOSUNNY   88  72  58 SW7G16    29.92F HX  94
WALTERBORO     PTCLDY    88  72  58 W17       29.92S HX  94
ALLENDALE      FAIR      86  72  62 SW9G16    29.91S HX  92

...SOUTHERN MIDLANDS AND PEE DEE...

CITY           SKY/WX    TMP DP  RH WIND       PRES   REMARKS
GEORGETOWN     FAIR      90  68  48 W16       29.88S HX  93
KINGSTREE      FAIR      88  66  48 SW9       29.87F HX  90
ORANGEBURG     PTSUNNY   90  69  50 W20G28    29.89F HX  94
BARNWELL       FAIR      88  73  62 SW13G22   29.90F HX  96
AIKEN          MOCLDY    86  68  54 SW18      29.92F
MANNING        FAIR      88  73  62 SW18G26   29.88F HX  96
COLUMBIA       PTSUNNY   92  67  43 SW18G28   29.85F HX  95
SUMTER         MOSUNNY   90  68  48 W15       29.83F HX  93
FLORENCE       MOSUNNY   90  65  43 SW14G28   29.85F HX  92
MYRTLE BEACH   PTSUNNY   86  73  66 S12       29.87F HX  93
N MYRTLE BEACH CLOUDY    82  73  74 SW20      29.86S

$$

GAZ063-065-086>088-099>101-113>116-118-119-134>141-150-282000-
...SOUTHEAST GEORGIA...

CITY           SKY/WX    TMP DP  RH WIND       PRES   REMARKS
SAVANNAH ARPT  CLOUDY    96  68  39 W15       29.92F HX 101
HUNTER AAF     MOSUNNY   91  76  61 W12G17    29.90F HX 103
FORT STEWART   PTSUNNY   90  70  51 W16       29.92F HX  95
STATESBORO     PTSUNNY   89  72  56 W13G21    29.95S HX  96
SYLVANIA       CLOUDY    85  74  69 W9        29.95F HX  93
CLAXTON        MOCLDY    88  76  67 SW8G17    29.96S HX  98

...CSRA...CENTRAL AND FAR SOUTHEAST GEORGIA...

CITY           SKY/WX    TMP DP  RH WIND       PRES   REMARKS
THOMSON        MOSUNNY   87  71  58 W14G23    29.94F HX  92
AUGUSTA-BUSH   PTSUNNY   90  71  53 SW15G26   29.89F HX  96
AUGUSTA-DANIEL MOSUNNY   89  67  47 SW10G21   29.89F HX  92
SWAINSBORO     FAIR      88  72  58 SW9       29.96F HX  94
VIDALIA        MOSUNNY   88  72  58 W9        29.96F HX  94
EASTMAN        FAIR      89  57  33 W10G21    29.99F
HAZLEHURST     FAIR      90  71  54 W8G17     29.95F HX  96
ALMA           MOSUNNY   92  69  47 W14G20    29.97F HX  97
WAYCROSS       PTSUNNY   94  74  53 NW12      29.97F HX 104
JESUP          MOCLDY    91  66  43 W12G17    29.96F HX  94
BAXLEY         FAIR      91  73  55 W7G17     29.96F HX 100
BRUNSWICK      MOSUNNY   90  73  58 W14       29.97F HX  98
SAINT SIMONS   PTSUNNY   92  71  50 SW14      29.96F HX  98

$$

SCZ027-028-034-036>038-045-046-048>050-GAZ119-141-282000-
...LAKE AND SUPPLEMENTAL COASTAL OBSERVATIONS...

STATION/POSITION TIME  TEMP    WIND        PRES    WAVE   SWELL
                       AIR SEA DIR/SP/G            HT/PER HT/PER/DIR
                 (UTC) (F)     (DEG/KT/KT) (MB)    (FT/S) (FT/S/D)
WINYAH BAY       NOT AVBL
LAKE MURRAY      1820   84     260/ 14/ 17 1010.8F
ACE BASIN NERRS  1745   85     240/  4     1014.0
FORT PULASKI     1842   88     260/  8/ 11 1013.6F
SAPELO ISLAND    1800   87     260/ 13     1015.0

$$

ANZ835-935-AMZ111-154-330-350-352-354-370-450-454-472-282000-
...C-MAN AND BUOY OBSERVATIONS...

STATION/POSITION TIME  TEMP    WIND        PRES    WAVE   SWELL
                       AIR SEA DIR/SP/G            HT/PER HT/PER/DIR
                 (UTC) (F)     (DEG/KT/KT) (MB)    (FT/S) (FT/S/D)
BUOY 41004       1850   77 76  220/ 14/ 17 1013.0F   3/ 5   2/130/ 7
BUOY 41008       1750   79 78  200/ 12/ 14 1014.8    2/ 8   2/110/ 8
FOLLY BEACH CMAN 1800   81     210/ 13/ 14 1013.9F
CAPERS NEARSHORE 1808   82 78  220/ 16/ 21 1012.5F
FRIPP NEARSHORE  1808   80 79  210/ 10/ 14 1013.6F


STATION/POSITION TIME  TEMP    WIND        PRES    WAVE   SWELL
                       AIR SEA DIR/SP/G            HT/PER HT/PER/DIR
                 (UTC) (F)     (DEG/KT/KT) (MB)    (FT/S) (FT/S/D)
5E ST. MARYS GA  1830      81                N/A     1/ 8
FRYING PAN BUOY  1850   77 75  220/ 16/ 17 1011.9F   4/ 5
BUOY 41025       1850   78 77  210/ 14/ 17 1010.2F   3/ 6   2/200/ 7
CAPE LOOKOUT NC  1800   79     200/ 15/ 19 1010.5F
BUOY 41002       1850   77 77  240/ 12/ 14 1016.2F   4/ 5   2/130/ 8
BUOY 41010       1850   80 80  290/ 10/ 12 1016.5F   2/ 4   2/ 90/ 8
ST AUGUSTINE FL  1900   83 78  100/  5/  7 1016.3F


$$



USA.gov is the U.S. government's official web portal to all federal, state and local government web resources and services.